North Adams, MA

5:15 PM EDT on September 19, 2019 (GMT -0400)
Harriman And West

Weather History for KAQW - August, 2019

Change the Weather History Date:

Sunday, August 25, 2019

  Actual Average Record
Temperature  
Mean Temperature 62 °F -  
Max Temperature 73 °F 76 °F 93 °F (2007)
Min Temperature 48 °F 53 °F 43 °F (2001)
Degree Days  
Heating Degree Days 3    
Growing Degree Days 12 (Base 50)    
Moisture  
Dew Point 54 °F    
Average Humidity 80    
Maximum Humidity 100    
Minimum Humidity 41    
Precipitation  
Precipitation 0.02 in - - ()
Sea Level Pressure  
Sea Level Pressure 30.31 in    
Wind  
Wind Speed 3 mph ()    
Max Wind Speed 13 mph    
Max Gust Speed -    
Visibility 9.2 miles    
Events Rain    
Averages and records for this station are not official NWS values.
T = Trace of Precipitation, MM = Missing Value Source: Averaged Metar Reports

Daily Weather History Graph

Daily Weather History Graph

Search for Another Location

Airport or City:

Astronomy

Aug. 25, 2019 Rise Set
Actual Time 6:09 AM EDT 7:39 PM EDT
Civil Twilight 5:40 AM EDT 8:08 PM EDT
Nautical Twilight 5:04 AM EDT 8:44 PM EDT
Astronomical Twilight 4:26 AM EDT 9:22 PM EDT
Moon 12:38 AM EDT (8/25) 4:01 PM EDT (8/25)
Length of Visible Light 14h 28m
Length of Day
13h 29m
Waning Crescent, 29% of the Moon is Illuminated
Aug 25
Waning Crescent
Aug 30
New
Sep 5
First Quarter
Sep 14
Full
Sep 21
Last Quarter

Hourly Weather History & Observations

Time (EDT) Temp. Dew Point Humidity Pressure Visibility Wind Dir Wind Speed Gust Speed Precip Events Conditions
12:26 AM 63.0 °F 57.0 °F 81% 30.31 in 10.0 mi Variable 5.8 mph - N/A   Overcast
12:34 AM 63.0 °F 57.0 °F 81% 30.31 in 10.0 mi East 8.1 mph - N/A   Overcast
12:52 AM 62.1 °F 57.9 °F 86% 30.31 in 10.0 mi ESE 8.1 mph - 0.00 in Rain Light Rain
1:52 AM 60.1 °F 59.0 °F 96% 30.31 in 10.0 mi Calm Calm - 0.02 in   Overcast
2:25 AM 60.1 °F 57.9 °F 93% 30.30 in 10.0 mi East 3.5 mph - N/A   Mostly Cloudy
2:35 AM 59.0 °F 57.9 °F 96% 30.30 in 10.0 mi Calm Calm - N/A   Mostly Cloudy
2:43 AM 57.9 °F 57.9 °F 100% 30.30 in 10.0 mi Calm Calm - N/A   Mostly Cloudy
2:52 AM 57.9 °F 57.9 °F 100% 30.30 in 10.0 mi Calm Calm - N/A   Mostly Cloudy
3:23 AM 57.0 °F 57.0 °F 100% 30.30 in 10.0 mi Calm Calm - N/A   Mostly Cloudy
3:52 AM 55.9 °F 55.9 °F 100% 30.31 in 9.0 mi Calm Calm - N/A   Mostly Cloudy
4:05 AM 55.9 °F 55.9 °F 100% 30.31 in 10.0 mi Calm Calm - N/A   Mostly Cloudy
4:52 AM 55.9 °F 55.9 °F 100% 30.32 in 7.0 mi Calm Calm - N/A   Mostly Cloudy
5:52 AM 55.0 °F 55.0 °F 100% 30.32 in 10.0 mi Calm Calm - N/A   Scattered Clouds
6:21 AM 54.0 °F 54.0 °F 100% 30.33 in 1.8 mi Calm Calm - N/A   Scattered Clouds
6:28 AM 54.0 °F 54.0 °F 100% 30.33 in 2.0 mi Calm Calm - N/A   Mostly Cloudy
6:32 AM 53.1 °F 53.1 °F 100% 30.33 in 3.0 mi Calm Calm - N/A   Mostly Cloudy
6:52 AM 54.0 °F 54.0 °F 100% 30.34 in 10.0 mi Calm Calm - N/A   Scattered Clouds
7:52 AM 57.9 °F 57.0 °F 97% 30.35 in 10.0 mi Calm Calm - N/A   Partly Cloudy
8:52 AM 64.0 °F 57.0 °F 78% 30.35 in 10.0 mi Variable 3.5 mph - N/A   Clear
9:52 AM 66.0 °F 55.0 °F 68% 30.35 in 10.0 mi Variable 4.6 mph - N/A   Clear
10:52 AM 66.9 °F 54.0 °F 63% 30.35 in 10.0 mi Calm Calm - N/A   Mostly Cloudy
11:52 AM 66.9 °F 52.0 °F 59% 30.33 in 10.0 mi Variable 4.6 mph - N/A   Overcast
12:52 PM 71.1 °F 51.1 °F 49% 30.32 in 10.0 mi East 10.4 mph - N/A   Partly Cloudy
1:52 PM 72.0 °F 50.0 °F 46% 30.30 in 10.0 mi SE 12.7 mph - N/A   Partly Cloudy
2:52 PM 73.0 °F 50.0 °F 44% 30.29 in 10.0 mi East 8.1 mph - N/A   Partly Cloudy
3:52 PM 73.0 °F 48.0 °F 41% 30.27 in 10.0 mi Variable 6.9 mph - N/A   Clear
4:52 PM 72.0 °F 48.9 °F 44% 30.26 in 10.0 mi ESE 8.1 mph - N/A   Clear
5:52 PM 71.1 °F 46.9 °F 42% 30.26 in 10.0 mi East 8.1 mph - N/A   Clear
6:52 PM 68.0 °F 50.0 °F 52% 30.27 in 10.0 mi Calm Calm - N/A   Clear
7:52 PM 60.1 °F 53.1 °F 78% 30.28 in 10.0 mi Calm Calm - N/A   Clear
8:52 PM 54.0 °F - N/A% 30.31 in 10.0 mi Calm Calm - N/A   Clear
9:52 PM 53.1 °F - N/A% 30.31 in 10.0 mi East 3.5 mph - N/A   Clear
10:52 PM 51.1 °F - N/A% 30.32 in 10.0 mi Calm Calm - N/A   Clear
11:52 PM 48.9 °F 48.0 °F 97% 30.32 in 10.0 mi Calm Calm - N/A   Clear